Location: D?uga
(50.2667°N, 19.7833°E)
Time: 15:19:39
(UTC+00:00)

MSX - Pass Details

Date: 23 May 2024
Orbit: 893 x 906 km, 99.0° (Epoch: 12 June)

Event Time Altitude Azimuth Distance (km) Brightness Sun altitude
Rises 00:20:17 0° 17° (NNE) 3,526 8.7 -15.6°
Reaches altitude 10° 00:22:45 10° 22° (NNE) 2,580 7.6 -15.4°
Maximum altitude 00:28:25 58° 101° (E) 1,037 4.2 -15.0°
Enters shadow 00:32:53 16° 177° (S) 2,134 5.3 -14.7°
